Preview of NWS' New Version of Forecast
This preview is not operational and should not be used for support decisions.

Regional Weather Roundup (RWR)

Issued by Gray - Portland, ME (GYX)

                            
000
ASUS41 KGYX 241510
RWRGYX
WEATHER ROUNDUP FOR MAINE AND NEW HAMPSHIRE
NATIONAL WEATHER SERVICE GRAY ME
1100 AM EDT MON JUN 24 2019

MEZ002-005-006-010-012-015-018-020-021-024-026-027-029-241600-
MAINE
  
CITY           SKY/WX    TMP DP  RH WIND       PRES   REMARKS
PORTLAND       FAIR      76  42  29 NW12      29.84R                  
SANFORD        FAIR      77  44  30 NW13G18   29.84F                  
BAR HARBOR     FAIR      67  44  43 VRB6      29.84R                  
WISCASSET      FAIR      74  45  35 W6        29.85R                  
ROCKLAND       FAIR      68  43  40 E9        29.84R                  
FRYEBURG       FAIR      74  42  31 CALM      29.85S                  
LEWISTONAUBURN FAIR      73  43  33 N9        29.85R                  
AUGUSTA        FAIR      71  42  35 NW7       29.86R                  
WATERVILLE     FAIR      69  45  41 NE8       29.83R                  
BANGOR         FAIR      68  46  45 NW9       29.84F                  
GREENVILLE       N/A     62  40  44 N9G18     29.84S                  
MILLINOCKET    FAIR      66  36  32 CALM      29.84F                  
HOULTON        FAIR      64  40  41 NW12      29.80S                  
PRESQUE ISLE   FAIR      64  39  39 NW16      29.82S                  
FRENCHVILLE    FAIR      63  38  39 NW12G22   29.81F                  
CARIBOU        FAIR      65  39  38 NW12G20   29.80S                  
$$

NHZ002-005-008-009-011-012-014-241600-
NEW HAMPSHIRE
  
CITY           SKY/WX    TMP DP  RH WIND       PRES   REMARKS
PORTSMOUTH     MOSUNNY   77  49  36 CALM      29.83S                  
ROCHESTER      FAIR      77  44  30 NW8G16    29.84S                  
NASHUA         FAIR      80  47  31 NW10      29.85F                  
MANCHESTER     PTSUNNY   80  45  28 W9        29.83F                  
CONCORD        FAIR      78  49  35 MISG      29.85F                  
LACONIA        FAIR      74  44  34 VRB6      29.86S                  
PLYMOUTH       FAIR      74  43  32 W9        29.87R                  
BERLIN         FAIR      73  37  27 N8G21     29.87R                  
WHITEFIELD     FAIR      71  39  31 W10G17    29.88S                  
JAFFREY        FAIR      77  47  34 VRB7      29.88F                  
KEENE          FAIR      75  56  51 SE5       29.87F                  
LEBANON        FAIR      77  51  40 CALM      29.86F                  
MT WASHINGTON  MOSUNNY   43  30  61 N26G43      N/A                   
$$

VTZ005-007-008-241600-
VERMONT
  
CITY           SKY/WX    TMP DP  RH WIND       PRES   REMARKS
ST JOHNSBURY     N/A     73  39  29 MISG      29.86S                  
MONTPELIER     FAIR      71  47  42 CALM      29.93S                  
BURLINGTON     FAIR      74  52  46 CALM      29.88S                  
$$

MAZ007-012-024-CTZ003-RIZ002-NYZ038-NYZ072-241600-
SOUTHERN NEW ENGLAND AND NY
  
CITY           SKY/WX    TMP DP  RH WIND       PRES   REMARKS
BOSTON         FAIR      79  55  43 E9        29.84F                  
WORCESTER      FAIR      76  55  48 W9        29.88F                  
NANTUCKET      FAIR      76  56  49 NW12      29.85R                  
PROVIDENCE     PTSUNNY   82  55  39 NW6       29.85S                  
HARTFORD       PTSUNNY   82  54  37 N5        29.86F                  
ALBANY         FAIR      77  52  41 VRB3      29.88F                  
NEW YORK CITY  PTSUNNY   81  48  31 N5        29.88S                  
$$

ANZ081-ANZ082-ANZ150-NHZ014-MEZ023>029-241600-
COASTAL MARINE OBSERVATIONS
  
STATION/POSITION TIME  TEMP    WIND        PRES    WAVE
                       AIR SEA DIR/SP/G            HT/PER
                 (UTC) (F)     (DEG/KT/KT) (MB)    (FT/S)
ISLE OF SHOALS   1400   66      40/  2/  3 1010.2R
JEFFREYS LEDGE   1438      59                N/A     1/ 9
$$

.............KEY..............
   WCI - WIND CHILL
   TC  - TEMPERATURE IN CELSIUS
   VSB - VISIBILITY IN MILES
   HX  - HEAT INDEX
   FAIR- INDICATES FEW OR NO CLOUDS BELOW 12,000 FT, WITH NO 
         SIGNIFICANT WEATHER AND/OR OBSTRUCTIONS TO VISIBILITY.